Home   Weather   Pyatigorsk   Past weeks

Flag for Russia Past Weather in Pyatigorsk, Russia — Yesterday and Last 2 Weeks

Now
34 °F

Clear.


Feels Like: 34 °F
Forecast: 16 / 37 °F
Wind: 1 mph from North

Location: Mineral'Nye Vody

Current Time: Jan 24, 2017 at 12:17:47 pm

Latest Report: Jan 24, 2017 at 11:30 am


Visibility: N/A

Pressure: 30.24 "Hg (28.30 "Hg at 533m altitude)

Humidity: 51%

Dew Point: 18 °F

Location of PyatigorskLocation

Past Weather in Pyatigorsk — Graph

°F

Pyatigorsk Temperature Yesterday

Maximum temperature yesterday: 36 °F (at 1:30 pm)
Minimum temperature yesterday: 23 °F (at 11:30 pm)
Average temperature yesterday: 30 °F

High & Low Weather Summary for the Past Weeks

 TemperatureHumidityPressure
High37 °F (Jan 10, 2:00 pm)100% (Jan 9, 11:00 am)30.42 "Hg (Jan 9, 11:00 am)
Low14 °F (Jan 14, 6:00 am)60% (Jan 23, 12:00 pm)29.83 "Hg (Jan 12, 10:00 pm)
Average29 °F91%30.21 "Hg
* Reported Jan 9 11:00 am — Jan 24 11:00 am, Pyatigorsk, Weather by CustomWeather, © 2017

Note: Actual official high and low records may vary slightly from our data, if they occured in-between our weather recording intervals... More about our weather records

Advertising

Pyatigorsk Weather History for the Previous 24 Hours

Scroll right to see more
 ConditionsComfort  
Time TempWeatherWind HumidityBarometerVisibility
11:00 am
Tue, Jan 24
28 °FClear.1 mph64%30.27 "HgN/A
10:30 am27 °FClear.3 mph64%30.27 "HgN/A
10:00 am25 °FClear.3 mph69%30.27 "HgN/A
9:30 am23 °FClear.3 mph74%30.27 "HgN/A
9:00 am21 °FClear.6 mph74%30.30 "HgN/A
8:30 am18 °FClear.3 mph79%30.30 "HgN/A
8:00 am16 °FClear.3 mph86%30.30 "HgN/A
7:30 am16 °FClear.3 mph86%30.30 "HgN/A
7:00 am18 °FClear.3 mph79%30.30 "HgN/A
6:30 am18 °FClear.3 mph79%30.30 "HgN/A
6:00 am18 °FClear.6 mph86%30.30 "HgN/A
5:30 am18 °FClear.8 mph86%30.30 "HgN/A
5:00 am18 °FClear.8 mph86%30.30 "HgN/A
4:30 am21 °FClear.6 mph80%30.33 "HgN/A
4:00 am19 °FClear.6 mph79%30.33 "HgN/A
3:30 am21 °FClear.8 mph80%30.33 "HgN/A
3:00 am21 °FClear.8 mph80%30.36 "HgN/A
2:30 am21 °FClear.6 mph80%30.36 "HgN/A
2:00 am23 °FClear.8 mph74%30.36 "HgN/A
1:30 am21 °FClear.3 mph80%30.36 "HgN/A
1:00 am21 °FClear.8 mph80%30.36 "HgN/A
12:30 am21 °FClear.10 mph80%30.36 "HgN/A
12:00 am25 °FClear.8 mph74%30.36 "HgN/A
11:30 pm
Mon, Jan 23
23 °FClear.8 mph80%30.36 "HgN/A
11:00 pm25 °FClear.8 mph74%30.39 "HgN/A
10:30 pm25 °FClear.8 mph74%30.39 "HgN/A
10:00 pm27 °FClear.8 mph74%30.39 "HgN/A
9:30 pm27 °FClear.6 mph74%30.39 "HgN/A
9:00 pm27 °FClear.8 mph80%30.39 "HgN/A
8:30 pm27 °FClear.8 mph80%30.39 "HgN/A
8:00 pm27 °FClear.8 mph80%30.39 "HgN/A
7:30 pm28 °FClear.3 mph74%30.39 "HgN/A
7:00 pm28 °FClear.8 mph74%30.39 "HgN/A
6:30 pm28 °FClear.13 mph74%30.39 "HgN/A
6:00 pm30 °FClear.10 mph75%30.39 "HgN/A
5:30 pm32 °FClear.8 mph69%30.39 "HgN/A
5:00 pm34 °FClear.10 mph65%30.39 "HgN/A
4:30 pm36 °FClear.15 mph65%30.39 "HgN/A
4:00 pm36 °FClear.20 mph65%30.39 "HgN/A
3:30 pm36 °FClear.17 mph65%30.39 "HgN/A
3:00 pm36 °FClear.22 mph65%30.36 "HgN/A
2:30 pm36 °FClear.22 mph65%30.39 "HgN/A
2:00 pm36 °FClear.20 mph65%30.39 "HgN/A
1:30 pm36 °FClear.24 mph60%30.39 "HgN/A
1:00 pm34 °FClear.24 mph65%30.39 "HgN/A
12:30 pm34 °FClear.26 mph65%30.39 "HgN/A
12:00 pm34 °FClear.26 mph60%30.42 "HgN/A
Weather by CustomWeather, © 2017

See weather overviewHow to use our weather pages